Header for Extended Forecast Station List Page

Search by: ID | Name | Date | Parm | Value | Avg | % Avg
Sort by: ID | Name | Date | Parm | Value | Avg | % Avg

Enter search or view all records.

Click on id for station plot
#IDNameDateParmValueAvg% Avg
0ABOM8CLARK FORK-ABOVE MISSOULA06-14-2021DISCHARGE (KAF)53069676
1AFRI1SNAKE-AMERICAN FALLS RESERVOIR06-14-2021INFLOW (KAF)1108142278
2ALFW1PEND OREILLE-ALBENI FALLS DAM06-14-2021INFLOW (KAF)3792561668
3ALPW4SNAKE-NEAR ALPINE06-14-2021DISCHARGE (KAF)977161960
4ANAW1SNAKE-NEAR ANATONE06-14-2021DISCHARGE (KAF)4376674265
5ANTI1HENRYS FORK-AT ST. ANTHONY06-14-2021DISCHARGE (KAF)23636066
6ARAI1SF BOISE-ANDERSON RANCH DAM06-14-2021INFLOW (KAF)6216937
7ARDW1ENTIAT-NEAR ARDENVOIR06-14-2021DISCHARGE (KAF)769778
8BELM8CLARK FORK-BELOW MISSOULA06-14-2021DISCHARGE (KAF)829128664
9BERO3MALHEUR-AGENCY VALLEY DAM06-14-2021INFLOW (KAF)7974
10BFEI1KOOTENAI-AT BONNERS FERRY06-14-2021STAGE (FT)MMM
11BFTI1SNAKE-NEAR BLACKFOOT06-14-2021DISCHARGE (KAF)57078273
12BIGI1BOISE-AT GLENWOOD BRIDGE06-14-2021DISCHARGE (KAF)18423777
13BITM8BITTERROOT-NEAR MISSOULA06-14-2021DISCHARGE (KAF)30356054
14BONM8BLACKFOOT-NEAR BONNER06-14-2021DISCHARGE (KAF)31636986
15BONO3COLUMBIA-BONNEVILLE DAM06-14-2021INFLOW (KAF)321704096579
16BRNI1SNAKE-BROWNLEE DAM06-14-2021INFLOW (KAF)2306320872
17BUDW1BUMPING-BUMPING LAKE DAM06-14-2021INFLOW (KAF)274856
18BULO3BULLY CREEK-BULLY CREEK DAM06-14-2021INFLOW (KAF)M0M
19CABI1CLARK FORK-CABINET GORGE DAM06-14-2021INFLOW (KAF)3712517972
20CFMM8FLATHEAD-AT COLUMBIA FALLS06-14-2021DISCHARGE (KAF)1606221273
21CHDW1CHELAN-LAKE CHELAN DAM06-14-2021INFLOW (KAF)51054793
22CHEI1FALL RIVER-NEAR CHESTER06-14-2021DISCHARGE (KAF)4213032
23CHJW1COLUMBIA-CHIEF JOSEPH DAM06-14-2021INFLOW (KAF)216202558085
24CIBW1COLUMBIA-AT INTL BOUNDARY06-14-2021DISCHARGE (KAF)21049MM
25CLFW1NACHES-NEAR CLIFFDEL06-14-2021DISCHARGE (KAF)14115293
26CLUW1CLE ELUM-CLE ELUM LAKE06-14-2021INFLOW (KAF)206152136
27COEI1COEUR D ALENE-COEUR D ALENE LAKE06-14-2021INFLOW (KAF)29445065
28CSDI1NF PAYETTE-CASCADE DAM06-14-2021INFLOW (KAF)5914241
29DEDI1DEADWOOD-NEAR LOWMAN06-14-2021INFLOW (KAF)185236
30DLGM8CLARK FORK-AT DEER LODGE06-14-2021DISCHARGE (KAF)234848
31DRMM8CLARK FORK-NR DRUMMOND06-14-2021DISCHARGE (KAF)82MM
32DWRI1NF CLEARWATER-DWORSHAK DAM06-14-2021INFLOW (KAF)47175662
33EASW1YAKIMA-AT EASTON06-14-2021DISCHARGE (KAF)8079102
34EMMI1PAYETTE-NEAR EMMETT06-14-2021DISCHARGE (KAF)32860954
35FCFM8NF FLATHEAD-NEAR COLUMBIA FALLS06-14-2021DISCHARGE (KAF)48175364
36GCDW1COLUMBIA-GRAND COULEE DAM06-14-2021INFLOW (KAF)218373158069
37GIBO3UMATILLA-NEAR GIBBON06-14-2021DISCHARGE (KAF)121585
38HALI1BIG WOOD-AT HAILEY06-14-2021DISCHARGE (KAF)4512636
39HEII1SNAKE-NEAR HEISE06-14-2021DISCHARGE (KAF)2333246895
40HHWM8SF FLATHEAD-HUNGRY HORSE DAM06-14-2021INFLOW (KAF)48673067
41HODO3HOOD-NEAR TUCKER BRIDGE06-14-2021DISCHARGE (KAF)8710285
42HOPI1PEND OREILLE-PEND OREILLE LAKE NR HOPE06-14-2021LAKE ELEVATION (FT)MMM
43HOTI1BRUNEAU-NEAR HOT SPRINGS06-14-2021DISCHARGE (KAF)74915
44HWRI1BIG LOST-AT HOWELL RANCH NEAR CHILLY06-14-2021DISCHARGE (KAF)3010030
45IHDW1SNAKE-ICE HARBOR DAM06-14-2021INFLOW (KAF)6699905474
46IPDI1HENRYS FORK-ISLAND PARK DAM06-14-2021INFLOW (KAF)10816466
47JDAO3COLUMBIA-JOHN DAY DAM06-14-2021INFLOW (KAF)313274345672
48JKSW4SNAKE-NEAR JACKSON06-14-2021DISCHARGE (KAF)823132862
49JLKW4SNAKE-JACKSON LAKE AT DAM06-14-2021INFLOW (KAF)17042140
50KADW1KACHESS-KACHESS DAM06-14-2021INFLOW (KAF)4429150
51KEDW1YAKIMA-KEECHELUS LAKE06-14-2021INFLOW (KAF)4536123
52KERM8FLATHEAD-SELI’Š KSANKA QLISPE’ DAM06-14-2021INFLOW (KAF)1802270567
53KIOW1YAKIMA-AT KIONA06-14-2021DISCHARGE (KAF)43245794
54LAUW1KETTLE-AT LAURIER06-14-2021DISCHARGE (KAF)22750745
55LEOI1KOOTENAI-AT LEONIA06-14-2021DISCHARGE (KAF)1867350853
56LGDW1SNAKE-LOWER GRANITE DAM06-14-2021INFLOW (KAF)6694908374
57LGSW1SNAKE-LITTLE GOOSE DAM06-14-2021INFLOW (KAF)6632910673
58LLKW1SPOKANE-AT LONGLAKE06-14-2021INFLOW (KAF)50680463
59LMNW1SNAKE-LOWER MONUMENTAL DAM06-14-2021INFLOW (KAF)6687912273
60LUCI1BOISE-LUCKY PEAK DAM06-14-2021INFLOW (KAF)544MM
61LWRI1LITTLE WOOD-LITTLE WOOD DAM06-14-2021INFLOW (KAF)72625
62LYDM8KOOTENAI-LIBBY DAM06-14-2021INFLOW (KAF)2590372270
63MACI1BIG LOST-MACKAY RESERVOIR NEAR MACKAY06-14-2021INFLOW (KAF)318836
64MAGI1BIG WOOD-MAGIC DAM06-14-2021INFLOW (KAF)87910
65MCDW1COLUMBIA-MCNARY DAM06-14-2021INFLOW (KAF)308114281872
66MILI1SNAKE-AT MILNER06-14-2021DISCHARGE (KAF)M80M
67MODO3DESCHUTES-AT MOODY NR BIGGS06-14-2021DISCHARGE (KAF)1062110696
68MONO3NF JOHN DAY-AT MONUMENT06-14-2021DISCHARGE (KAF)428351
69MYKO3MCKAY CREEK-NEAR PILOT ROCK06-14-2021DISCHARGE (KAF)0150
70NACW1NACHES-NEAR NACHES06-14-2021DISCHARGE (KAF)21823792
71NOXM8CLARK FORK-NOXON RAPIDS DAM06-14-2021INFLOW (KAF)3377484070
72ORFI1CLEARWATER-AT OROFINO06-14-2021DISCHARGE (KAF)712138851
73OWYO3OWYHEE-OWYHEE DAM06-14-2021INFLOW (KAF)336154
74PARI1BOISE-NEAR PARMA06-14-2021DISCHARGE (KAF)18723779
75PARW1YAKIMA-NEAR PARKER06-14-2021DISCHARGE (KAF)12213193
76PATW1METHOW-NEAR PATEROS06-14-2021DISCHARGE (KAF)27036075
77PDTO3UMATILLA-AT PENDLETON06-14-2021DISCHARGE (KAF)131681
78PESW1WENATCHEE-AT PESHASTIN06-14-2021DISCHARGE (KAF)60867690
79PIHI1PORTNEUF-AT POCATELLO06-14-2021DISCHARGE (KAF)92437
80PITW1KLICKITAT-NEAR PITT06-14-2021DISCHARGE (KAF)17524073
81PLDI1SF SNAKE-PALISADES DAM06-14-2021INFLOW (KAF)1259216858
82PRTI1PRIEST-NEAR PRIEST RIVER06-14-2021DISCHARGE (KAF)20824984
83PRWW1COLUMBIA-PRIEST RAPIDS DAM06-14-2021INFLOW (KAF)235543268872
84RCCM8ROCK CREEK-NEAR CLINTON06-14-2021DISCHARGE (KAF)10513876
85REXI1HENRYS FORK-AT REXBURG06-14-2021DISCHARGE (KAF)23242255
86RIDI1WILLOW CREEK-RIRIE DAM06-14-2021INFLOW (KAF)1719
87RILW1TIETON-RIMROCK LAKE NEAR RIMROCK06-14-2021INFLOW (KAF)10710998
88RRHW1COLUMBIA-ROCKY REACH DAM06-14-2021INFLOW (KAF)228692745683
89SATI1ST MARIES-NEAR SANTA06-14-2021DISCHARGE (KAF)202870
90SERO3JOHN DAY-AT SERVICE CK06-14-2021DISCHARGE (KAF)5311944
91SHYI1SNAKE-NEAR SHELLEY06-14-2021DISCHARGE (KAF)1155136085
92SIFI1SNAKE-AB EAGLE ROCK NR IDAHO FALLS06-14-2021DISCHARGE (KAF)1329169778
93SJMI1ST JOE-AT ST MARIES06-14-2021STAGE (FT)MMM
94SNAI1SNAKE-AT BLACKFOOT06-14-2021DISCHARGE (KAF)59285969
95SPDI1CLEARWATER-AT SPALDING06-14-2021DISCHARGE (KAF)23182277102
96SPOW1SPOKANE-AT SPOKANE06-14-2021DISCHARGE (KAF)353MM
97SRGM8CLARK FORK-AT ST REGIS06-14-2021DISCHARGE (KAF)1048166763
98STRM8ST. REGIS-NEAR ST. REGIS06-14-2021DISCHARGE (KAF)426465
99SWAI1SNAKE-BELOW SWAN FALLS06-14-2021DISCHARGE (KAF)1421196272
100TCHW1WALLA WALLA-NEAR TOUCHET06-14-2021DISCHARGE (KAF)31027
101TDAO3COLUMBIA-THE DALLES DAM06-14-2021INFLOW (KAF)317453988280
102TEAI1TETON-NEAR ST. ANTHONY06-14-2021DISCHARGE (KAF)16324666
103TNAW1TEANAWAY-BELOW FORKS06-14-2021DISCHARGE (KAF)2318134
104TONW1OKANOGAN-NEAR TONASKET06-14-2021DISCHARGE (KAF)46766670
105TRYO3GRANDE RONDE-TROY06-14-2021DISCHARGE (KAF)28739972
106UMAO3UMATILLA-NEAR UMATILLA06-14-2021DISCHARGE (KAF)3931407
107UMTW1YAKIMA-AT UMTANUM06-14-2021DISCHARGE (KAF)721713101
108UNDW1WHITE SALMON-NEAR UNDERWOOD06-14-2021DISCHARGE (KAF)15218881
109WANW1COLUMBIA-WANAPUM DAM06-14-2021INFLOW (KAF)235493207273
110WEII1SNAKE-AT WEISER06-14-2021DISCHARGE (KAF)2180309870
111WELW1COLUMBIA-WELLS DAM06-14-2021INFLOW (KAF)223632683883
112WGCM8MF FLATHEAD-NEAR WEST GLACIER06-14-2021DISCHARGE (KAF)45670465
113WHBI1SALMON-AT WHITEBIRD06-14-2021DISCHARGE (KAF)1402275551
114WRMO3MALHEUR-WARM SPRINGS DAM06-14-2021INFLOW (KAF)22105
115WSRI1WEISER-NEAR WEISER06-14-2021DISCHARGE (KAF)548465